STARLINK-34629

Last updated on Sat Aug 16 2025 00:02:05 GMT+0000 (Coordinated Universal Time)

1 64790U 25150A 25227.42240077 .00049077 00000+0 11151-2 0 9990 2 64790 70.0010 316.0204 0003986 275.9157 84.1570 15.42759354 5087
UTC large
Height (km)
Speed (km/s)
/
Latitude / Longitude
Inclination (degrees)
Orbital Period (minutes)
Azimuth
Elevation
Range (km)
Doppler Factor

Next 0 passes for location: London (51.5072 / 0.1276)

Sorry there are no passes over London.